Medford, OR

7:28 AM PDT on April 23, 2018 (GMT -0700)
Rogue Valley International-Medford

Weather History for KMFR - August, 2013

Change the Weather History Date:

Thursday, August 29, 2013

  Actual Average Record
Temperature  
Mean Temperature 76 °F 71 °F  
Max Temperature 89 °F 88 °F 103 °F (2007)
Min Temperature 62 °F 55 °F 40 °F (1912)
Degree Days  
Heating Degree Days 0 0  
Month to date heating degree days 0 0  
Since 1 June heating degree days 35 60  
Since 1 July heating degree days 0 6  
Cooling Degree Days 11 7  
Month to date cooling degree days 273 264  
Year to date cooling degree days 891 696  
Since 1 June cooling degree days 856 658  
Growing Degree Days 25 (Base 50)    
Moisture  
Dew Point 55 °F    
Average Humidity 50    
Maximum Humidity 73    
Minimum Humidity 26    
Precipitation  
Precipitation 0.00 in 0.02 in 0.54 in (1983)
Month to date precipitation 0.42 0.37  
Year to date precipitation 4.55 10.11  
Snow  
Snow 0.00 in 0.00 in - ()
Month to date snowfall 0.0 0.0  
Since 1 July snowfall 0.0 0.0  
Snow Depth 0.00 in    
Sea Level Pressure  
Sea Level Pressure 29.95 in    
Wind  
Wind Speed 7 mph (WNW)    
Max Wind Speed 22 mph    
Max Gust Speed 30 mph    
Visibility 10 miles    
Events      
T = Trace of Precipitation, MM = Missing Value Source: NWS Daily Summary

Daily Weather History Graph

Daily Weather History Graph

Search for Another Location

Airport or City:

Astronomy

Aug. 29, 2013 Rise Set
Actual Time 6:33 AM PDT 7:49 PM PDT
Civil Twilight 6:04 AM PDT 8:18 PM PDT
Nautical Twilight 5:29 AM PDT 8:53 PM PDT
Astronomical Twilight 4:52 AM PDT 9:30 PM PDT
Moon 12:26 AM PDT (8/29) 3:26 PM PDT (8/29)
Length of Visible Light 14h 14m
Length of Day
13h 16m
Last Quarter, 37% of the Moon is Illuminated
Aug 29
Last Quarter
Sep 5
New
Sep 12
First Quarter
Sep 19
Full
Sep 26
Last Quarter

Hourly Weather History & Observations

Time (PDT) Temp. Heat Index Dew Point Humidity Pressure Visibility Wind Dir Wind Speed Gust Speed Precip Events Conditions
12:53 AM 70.0 °F - 55.0 °F 59% 29.88 in 10.0 mi Calm Calm - N/A   Clear
1:53 AM 69.1 °F - 54.0 °F 58% 29.87 in 10.0 mi SW 3.5 mph - N/A   Clear
2:53 AM 68.0 °F - 54.0 °F 61% 29.87 in 10.0 mi SSW 3.5 mph - N/A   Clear
3:53 AM 66.9 °F - 54.0 °F 63% 29.86 in 10.0 mi Calm Calm - N/A   Clear
4:53 AM 64.9 °F - 55.0 °F 70% 29.87 in 10.0 mi Calm Calm - N/A   Clear
5:53 AM 62.1 °F - 54.0 °F 75% 29.89 in 10.0 mi ENE 4.6 mph - N/A   Scattered Clouds
6:53 AM 64.0 °F - 55.0 °F 73% 29.91 in 10.0 mi Calm Calm - N/A   Mostly Cloudy
7:53 AM 64.0 °F - 55.0 °F 73% 29.94 in 10.0 mi Calm Calm - N/A   Mostly Cloudy
8:53 AM 69.1 °F - 55.0 °F 61% 29.95 in 10.0 mi Calm Calm - N/A   Clear
9:53 AM 73.9 °F - 55.0 °F 52% 29.96 in 10.0 mi Calm Calm - N/A   Clear
10:53 AM 77.0 °F - 55.0 °F 47% 29.96 in 10.0 mi North 4.6 mph - N/A   Overcast
11:53 AM 81.0 °F 80.5 °F 54.0 °F 39% 29.95 in 10.0 mi Calm Calm - N/A   Clear
12:53 PM 82.9 °F - 52.0 °F 34% 29.94 in 10.0 mi WSW 5.8 mph - N/A   Mostly Cloudy
1:53 PM 88.0 °F - 48.9 °F 26% 29.94 in 10.0 mi WSW 20.7 mph 27.6 mph N/A   Mostly Cloudy
2:53 PM 87.1 °F 84.9 °F 53.1 °F 31% 29.94 in 10.0 mi West 11.5 mph 18.4 mph N/A   Scattered Clouds
3:53 PM 84.9 °F 83.7 °F 55.9 °F 37% 29.95 in 10.0 mi WNW 13.8 mph 24.2 mph N/A   Partly Cloudy
4:53 PM 84.9 °F 83.7 °F 55.9 °F 37% 29.96 in 10.0 mi NW 13.8 mph 25.3 mph N/A   Clear
5:53 PM 82.0 °F 81.6 °F 55.9 °F 41% 29.97 in 10.0 mi NW 16.1 mph 23.0 mph N/A   Clear
6:53 PM 80.1 °F 80.1 °F 55.0 °F 42% 29.99 in 10.0 mi NW 13.8 mph 19.6 mph N/A   Clear
7:53 PM 75.9 °F - 55.0 °F 48% 30.01 in 10.0 mi NW 12.7 mph - N/A   Clear
8:53 PM 73.9 °F - 55.9 °F 53% 30.03 in 10.0 mi NW 6.9 mph - N/A   Clear
9:53 PM 72.0 °F - 55.9 °F 57% 30.05 in 10.0 mi NNW 5.8 mph - N/A   Clear
10:53 PM 71.1 °F - 55.9 °F 59% 30.07 in 10.0 mi NW 8.1 mph - N/A   Mostly Cloudy
11:53 PM 70.0 °F - 55.9 °F 61% 30.08 in 10.0 mi NW 5.8 mph - N/A   Overcast